CW7217 Weather Reports


time (UTC)temp
C
wind
direction
speed
KPH
gust
KPH
rain 1hr
cm
rain 24hr
cm
rain mn
cm
humidity
%
barometer
mb
20260906220106 37 0.0 0.0 0.00 0.00 0.00 34 1012.9
20260906214607 37 0.0 0.0 0.00 0.00 0.00 34 1013.0
20260906213107 39 0.0 0.0 0.00 0.00 0.00 33 1013.1
20260906211604 39 0.0 0.0 0.00 0.00 0.00 32 1013.4
20260906210115 39 0.0 0.0 0.00 0.00 0.00 31 1013.6
20260906204615 40 0.0 0.0 0.00 0.00 0.00 30 1013.8
20260906203104 40 0.0 0.0 0.00 0.00 0.00 30 1013.8
20260906201603 40 0.0 0.0 0.00 0.00 0.00 30 1014.0
20260906200104 40 0.0 0.0 0.00 0.00 0.00 31 1014.1
20260906194609 39 0.0 0.0 0.00 0.00 0.00 31 1014.3
20260906193103 37 0.0 0.0 0.00 0.00 0.00 33 1014.4
20260906191605 38 0.0 0.0 0.00 0.00 0.00 33 1014.6
20260906190106 37 0.0 0.0 0.00 0.00 0.00 34 1014.7
20260906184618 37 0.0 0.0 0.00 0.00 0.00 35 1015.0
20260906183106 36 0.0 0.0 0.00 0.00 0.00 38 1015.1
20260906181609 35 0.0 0.0 0.00 0.00 0.00 40 1015.3
20260906180106 36 0.0 0.0 0.00 0.00 0.00 37 1015.6
20260906174604 37 0.0 0.0 0.00 0.00 0.00 37 1016.0
20260906173107 35 0.0 0.0 0.00 0.00 0.00 41 1016.3
20260906171605 36 0.0 0.0 0.00 0.00 0.00 39 1016.4
20260906170106 35 0.0 0.0 0.00 0.00 0.00 42 1016.6
20260906164620 35 0.0 0.0 0.00 0.00 0.00 42 1016.8
20260906163110 34 0.0 0.0 0.00 0.00 0.00 43 1016.6
20260906161605 33 0.0 0.0 0.00 0.00 0.00 46 1016.8
20260906160113 31 0.0 0.0 0.00 0.00 0.00 50 1016.7
20260906154609 31 0.0 0.0 0.00 0.00 0.00 52 1016.6
20260906153105 29 0.0 0.0 0.00 0.00 0.00 56 1016.6
20260906151609 28 0.0 0.0 0.00 0.00 0.00 58 1016.7
20260906150112 27 0.0 0.0 0.00 0.00 0.00 61 1016.5
20260906144634 27 0.0 0.0 0.00 0.00 0.00 62 1016.6
20260906143116 27 0.0 0.0 0.00 0.00 0.00 62 1016.6
20260906141606 26 0.0 0.0 0.00 0.00 0.00 62 1016.6
20260906140107 26 0.0 0.0 0.00 0.00 0.00 62 1016.7
20260906134604 25 0.0 0.0 0.00 0.00 0.00 64 1016.6
20260906133109 25 0.0 0.0 0.00 0.00 0.00 64 1016.4
20260906131615 25 0.0 0.0 0.00 0.00 0.00 66 1016.2
20260906130101 23 0.0 0.0 0.00 0.00 0.00 70 1016.2
20260906124608 23 0.0 0.0 0.00 0.00 0.00 68 1016.0
20260906123110 23 0.0 0.0 0.00 0.00 0.00 68 1015.9
20260906121602 23 0.0 0.0 0.00 0.00 0.00 68 1015.5
20260906120126 24 0.0 0.0 0.00 0.00 0.00 67 1015.3
20260906114611 24 0.0 0.0 0.00 0.00 0.00 67 1015.3
20260906113106 24 0.0 0.0 0.00 0.00 0.00 66 1015.1
20260906111604 25 0.0 0.0 0.00 0.00 0.00 66 1015.0
20260906110115 25 0.0 0.0 0.00 0.00 0.00 66 1014.9
20260906104601 25 0.0 0.0 0.00 0.00 0.00 65 1014.8
20260906103103 25 0.0 0.0 0.00 0.00 0.00 65 1014.7
20260906101603 25 0.0 0.0 0.00 0.00 0.00 64 1014.6
20260906100106 25 0.0 0.0 0.00 0.00 0.00 64 1014.6
20260906094601 25 0.0 0.0 0.00 0.00 0.00 64 1014.5
20260906093118 25 0.0 0.0 0.00 0.00 0.00 63 1014.5
20260906091605 25 0.0 0.0 0.00 0.00 0.00 63 1014.5
20260906090128 26 0.0 0.0 0.00 0.00 0.00 63 1014.5
20260906084604 26 0.0 0.0 0.00 0.00 0.00 63 1014.5
20260906083106 26 0.0 0.0 0.00 0.00 0.00 62 1014.5
20260906081604 26 0.0 0.0 0.00 0.00 0.00 60 1014.4
20260906080105 27 0.0 0.0 0.00 0.00 0.00 59 1014.4
20260906074607 27 0.0 0.0 0.00 0.00 0.00 58 1014.4
20260906073105 27 0.0 0.0 0.00 0.00 0.00 56 1014.7
20260906071611 27 0.0 0.0 0.00 0.00 0.00 55 1014.9
20260906070106 27 0.0 0.0 0.00 0.00 0.00 55 1015.0
20260906064604 27 0.0 0.0 0.00 0.00 0.00 54 1015.1
20260906063106 27 0.0 0.0 0.00 0.00 0.00 54 1015.3
20260906061610 27 0.0 0.0 0.00 0.00 0.00 53 1015.2
20260906060104 27 0.0 0.0 0.00 0.00 0.00 51 1015.4
20260906054607 28 0.0 0.0 0.00 0.00 0.00 50 1015.4
20260906053101 28 0.0 0.0 0.00 0.00 0.00 50 1015.3
20260906051606 28 0.0 0.0 0.00 0.00 0.00 49 1015.4
20260906050133 28 0.0 0.0 0.00 0.00 0.00 50 1015.3
20260906044602 29 0.0 0.0 0.00 0.00 0.00 49 1015.2
20260906043111 29 0.0 0.0 0.00 0.00 0.00 47 1015.3
20260906041605 30 0.0 0.0 0.00 0.00 0.00 47 1015.3
20260906040117 30 0.0 0.0 0.00 0.00 0.00 46 1015.2
20260906034602 30 0.0 0.0 0.00 0.00 0.00 45 1015.0
20260906033103 30 0.0 0.0 0.00 0.00 0.00 45 1014.8
20260906031605 31 0.0 0.0 0.00 0.00 0.00 44 1014.5
20260906030135 31 0.0 0.0 0.00 0.00 0.00 43 1014.5
20260906024609 31 0.0 0.0 0.00 0.00 0.00 43 1014.3
20260906023127 31 0.0 0.0 0.00 0.00 0.00 42 1014.1
20260906021616 32 0.0 0.0 0.00 0.00 0.00 41 1013.9
20260906020107 32 0.0 0.0 0.00 0.00 0.00 40 1013.8
20260906014628 32 0.0 0.0 0.00 0.00 0.00 39 1013.5
20260906013104 33 0.0 0.0 0.00 0.00 0.00 38 1013.2
20260906011607 33 0.0 0.0 0.00 0.00 0.00 37 1012.9
20260906010109 34 0.0 0.0 0.00 0.00 0.00 37 1012.7
20260906004606 34 0.0 0.0 0.00 0.00 0.00 36 1012.7
20260906003110 35 0.0 0.0 0.00 0.00 0.00 36 1012.5
20260906001608 35 0.0 0.0 0.00 0.00 0.00 35 1012.6
20260906000105 36 0.0 0.0 0.00 0.00 0.00 34 1012.4
20260905234618 36 0.0 0.0 0.00 0.00 0.00 35 1012.4
20260905233106 36 0.0 0.0 0.00 0.00 0.00 35 1012.2
20260905231607 36 0.0 0.0 0.00 0.00 0.00 34 1012.1
20260905230106 37 0.0 0.0 0.00 0.00 0.00 33 1012.1
20260905224610 38 0.0 0.0 0.00 0.00 0.00 31 1012.2
20260905223107 39 0.0 0.0 0.00 0.00 0.00 30 1012.2
20260905221605 39 0.0 0.0 0.00 0.00 0.00 30 1012.3